Kalamazoo, MI

12:59 PM EDT on March 30, 2017 (GMT -0400)
Kalamazoo-Battle Creek International

Weather History for KAZO - March, 2013

Change the Weather History Date:

Friday, March 22, 2013

  Actual Average Record
Temperature  
Mean Temperature 32 °F 39 °F  
Max Temperature 39 °F 48 °F 84 °F (2012)
Min Temperature 24 °F 30 °F 10 °F (1976)
Degree Days  
Heating Degree Days 33 26  
Month to date heating degree days 768 668  
Since 1 July heating degree days 5318 5441  
Cooling Degree Days 0 0  
Month to date cooling degree days 0 0  
Year to date cooling degree days 0 0  
Moisture  
Dew Point 20 °F    
Average Humidity 70    
Maximum Humidity 81    
Minimum Humidity 59    
Precipitation  
Precipitation 0.00 in 0.08 in 1.20 in (1955)
Month to date precipitation 0.61 1.57  
Year to date precipitation 5.27 4.81  
Sea Level Pressure  
Sea Level Pressure 30.03 in    
Wind  
Wind Speed 7 mph (WNW)    
Max Wind Speed 15 mph    
Max Gust Speed 20 mph    
Visibility 10 miles    
Events      
T = Trace of Precipitation, MM = Missing Value Source: NWS Daily Summary

Daily Weather History Graph

Daily Weather History Graph

Search for Another Location

Airport or City:

Trip Planner

Search our weather history database for the weather conditions in past years. The results will help you decide how hot, cold, wet, or windy it might be!

Date:

Astronomy

Mar. 22, 2013 Rise Set
Actual Time 7:41 AM EDT 7:56 PM EDT
Civil Twilight 7:13 AM EDT 8:25 PM EDT
Nautical Twilight 6:40 AM EDT 8:57 PM EDT
Astronomical Twilight 6:07 AM EDT 9:31 PM EDT
Moon 3:19 PM EDT (3/22) 4:46 AM EDT (3/22)
Length of Visible Light 13h 11m
Length of Day
12h 15m
Waxing Gibbous, 77% of the Moon is Illuminated
Mar 22
Waxing Gibbous
Mar 27
Full
Apr 3
Last Quarter
Apr 10
New
Apr 18
First Quarter

Hourly Weather History & Observations

Time (EDT) Temp. Windchill Dew Point Humidity Pressure Visibility Wind Dir Wind Speed Gust Speed Precip Events Conditions
12:53 AM 26.6 °F 19.1 °F 17.6 °F 69% 29.99 in 9.0 mi WNW 6.9 mph - N/A   Overcast
1:36 AM 26.6 °F 20.0 °F 17.6 °F 69% 29.99 in 10.0 mi WNW 5.8 mph - N/A   Overcast
1:53 AM 26.1 °F 19.4 °F 18.0 °F 71% 30.03 in 10.0 mi WNW 5.8 mph - N/A   Overcast
2:53 AM 26.1 °F 19.4 °F 18.0 °F 71% 30.02 in 10.0 mi WNW 5.8 mph - N/A   Overcast
3:53 AM 26.1 °F 21.9 °F 18.0 °F 71% 30.02 in 10.0 mi WNW 3.5 mph - N/A   Overcast
4:53 AM 26.1 °F 20.5 °F 18.0 °F 71% 30.02 in 10.0 mi West 4.6 mph - N/A   Overcast
5:53 AM 26.1 °F 19.4 °F 18.0 °F 71% 30.03 in 10.0 mi West 5.8 mph - N/A   Overcast
6:53 AM 27.0 °F 20.5 °F 18.0 °F 69% 30.04 in 10.0 mi West 5.8 mph - N/A   Overcast
7:53 AM 26.1 °F 21.9 °F 18.0 °F 71% 30.04 in 10.0 mi WSW 3.5 mph - N/A   Overcast
8:53 AM 27.0 °F 20.5 °F 18.0 °F 69% 30.04 in 10.0 mi West 5.8 mph - N/A   Overcast
9:53 AM 28.9 °F 22.8 °F 18.0 °F 64% 30.03 in 10.0 mi West 5.8 mph - N/A   Scattered Clouds
10:53 AM 30.9 °F 23.5 °F 19.9 °F 64% 30.03 in 10.0 mi WNW 8.1 mph - N/A   Clear
11:53 AM 33.1 °F 26.1 °F 21.0 °F 61% 30.03 in 10.0 mi West 8.1 mph - N/A   Mostly Cloudy
12:53 PM 36.0 °F 28.5 °F 23.0 °F 59% 30.03 in 10.0 mi WNW 10.4 mph - N/A   Mostly Cloudy
1:53 PM 36.0 °F 29.0 °F 23.0 °F 59% 30.03 in 10.0 mi West 9.2 mph 16.1 mph N/A   Mostly Cloudy
2:53 PM 36.0 °F 28.5 °F 23.0 °F 59% 30.02 in 10.0 mi West 10.4 mph - N/A   Mostly Cloudy
3:53 PM 34.0 °F 26.6 °F 23.0 °F 64% 30.02 in 10.0 mi WSW 9.2 mph 18.4 mph N/A   Overcast
4:53 PM 37.0 °F 31.0 °F 24.1 °F 59% 30.02 in 10.0 mi WNW 8.1 mph - N/A   Mostly Cloudy
5:53 PM 36.0 °F 28.5 °F 23.0 °F 59% 30.01 in 10.0 mi NW 10.4 mph - N/A   Mostly Cloudy
6:53 PM 35.1 °F 27.9 °F 23.0 °F 61% 30.03 in 10.0 mi NW 9.2 mph - N/A   Scattered Clouds
7:53 PM 30.9 °F 22.8 °F 21.9 °F 69% 30.05 in 10.0 mi NW 9.2 mph - N/A   Clear
8:53 PM 30.0 °F 22.4 °F 21.0 °F 69% 30.07 in 10.0 mi WNW 8.1 mph - N/A   Clear
9:53 PM 27.0 °F 20.5 °F 19.9 °F 75% 30.07 in 10.0 mi NW 5.8 mph - N/A   Clear
10:53 PM 25.0 °F 18.1 °F 19.0 °F 78% 30.06 in 10.0 mi NNW 5.8 mph - N/A   Clear
11:53 PM 25.0 °F - 19.0 °F 78% 30.09 in 10.0 mi Calm Calm - N/A   Clear